Weather in Rozan

Poland     52˚53′29″N   21˚23′43″E
temp.,
°C
wind,
m/s
gust,
m/s
humid.,
%
clouds,
%
prec.,
mm/h
press.,
hPa
HPBL,
m
17 january, sun
sun1701:00−17˚ne6129095 0.1 1017372
04:00−18˚ne489373 0.0 1019240
07:00−19˚ne359364 0.0 1020113
10:00−16˚ne348615 0.0 1022209
13:00−14˚nne23828 0.0 1022303
16:00−15˚nnw229198 0.0 102222
19:00−15˚n239287 0.0 102326
22:00−17˚n129211 0.0 102320
18 january, mon
mon1801:00−18˚nw12915 0.0 102420
04:00−19˚nnw119329 0.0 102320
07:00−19˚sse119215 0.0 102420
10:00−15˚ssw228810 0.0 1023134
13:00−12˚sw238625 0.0 1022307
16:00−14˚ssw229392 0.0 102121
19:00−13˚s239396 0.0 102145
22:00−14˚s349395 0.0 102086
19 january, tue
tue1901:00−14˚sse349395 0.0 101982
04:00−11˚sse4795100 0.1 1016203
07:00−9˚sse5895100 0.8 1015266
10:00−6˚sse4696100 1.1 1014254
13:00−3˚sse4796100 1.7 1013219
16:00−1˚sse359897 0.3 1012157
19:00ssw479899 0.5 1012244
22:00s4898100 0.1 1011332
20 january, wed
wed2001:00−2˚sse5997100 0.3 1011307
04:00−3˚sse51096100 0.4 1009296
07:00−3˚sse61096100 0.9 1009339
10:00−1˚sse61096100 0.6 1009283
13:00+1˚ssw510100100 0.9 1008314
16:00+1˚ssw51199100 1.0 1007325
19:00+1˚ssw51198100 1.8 1007338
22:00+1˚ssw5997100 0.6 1007261
21 january, thu
thu2101:00+1˚ssw51090100 0.6 1008265
04:00−1˚ssw4108892 0.0 1007209
07:00−2˚s499078 0.0 1007199
10:00s489057 0.0 1006235
13:00+1˚sse489874 0.0 1005248
16:00sse489380 0.0 1003146
19:00+1˚s499666 0.0 1002259
22:00+1˚sw5129486 0.0 1004340